Regional Weather Roundup
Issued by NWS

Home | Current Version | Previous Version | Graphics & Text | Print | Product List | Glossary On
Versions: 1 2 3 4 5 6 7 8 9 10 11 12 13 14 15 16 17 18 19 20 21 22 23 24 25 26 27 28 29 30 31 32 33 34 35 36 37 38 39 40 41 42 43 44 45 46 47 48 49 50
537
ASUS43 KBIS 200910
RWRND

NORTH DAKOTA REGIONAL WEATHER ROUNDUP
NATIONAL WEATHER SERVICE BISMARCK ND
300 AM CST SAT JAN 20 2018

NOTE: "FAIR" INDICATES FEW OR NO CLOUDS BELOW 12,000 FEET WITH NO
SIGNIFICANT WEATHER AND/OR OBSTRUCTIONS TO VISIBILITY.


NDZ001>003-009>011-017-201000-
NORTHWEST NORTH DAKOTA

CITY           SKY/WX    TMP DP  RH WIND       PRES   REMARKS
WILLISTON      MOCLDY    28  23  81 W7        29.74S
MINOT          CLOUDY    32  24  72 SW10      29.71R
MINOT AFB      CLOUDY    31  24  78 W10       29.69R
$$

NDZ018>021-031>035-040>046-201000-
SOUTHWEST NORTH DAKOTA

CITY           SKY/WX    TMP DP  RH WIND       PRES   REMARKS
BISMARCK       CLOUDY    37  31  78 W9        29.77S
DICKINSON      CLOUDY    33  31  92 W10       29.75S
GARRISON         N/A     29  25  85 W8        29.73F
HETTINGER ARPT CLOUDY    34  31  88 W5        29.80S
$$

NDZ004>008-012>016-024-026-027-054-201000-
NORTHEAST NORTH DAKOTA

CITY           SKY/WX    TMP DP  RH WIND       PRES   REMARKS
GRAND FORKS    MOCLDY    29  25  85 W10       29.71R WCI  20
GRND FRKS AFB  MOCLDY    31  25  78 NW12      29.71R
DEVILS LAKE    CLOUDY    27  23  85 SW8       29.72R WCI  19
$$

NDZ022-023-025-028>030-036>039-047>053-201000-
SOUTHEAST NORTH DAKOTA

CITY           SKY/WX    TMP DP  RH WIND       PRES   REMARKS
FARGO          FAIR      25  23  92 SW5       29.74R WCI  19
JAMESTOWN      CLOUDY    30  26  85 W12       29.73R
$$





USA.gov is the U.S. government's official web portal to all federal, state and local government web resources and services.